Home > Weather > Biel > Past weeks

Flag for Switzerland Weather for the Past 2 Weeks in Biel, Switzerland

Now
38 °F

Chilly.


Feels Like: 34 °F
Forecast: 36 / 51 °F
Wind: 5 mph from Southwest

Location: Grenchen

Current Time: Feb 7, 2016 at 11:52:04 PM

Latest Report: Feb 7, 2016 at 10:00 PM


Visibility: N/A

Pressure: 30.03 "Hg

Humidity: 94%

Dew point: 36 °F

Location of BielLocation

Historic Weather in Biel — Graph

°F

Biel Temperature Yesterday

Maximum temperature yesterday: 45 °F (at 4:00 PM)
Minimum temperature yesterday: 35 °F (at 8:00 PM)
Average temperature yesterday: 38 °F

High & Low Weather Summary for the Past Weeks

 TemperatureHumidityPressure
High57 °F (Feb 1, 1:00 PM)100% (Jan 24, 3:00 PM)30.71 "Hg (Jan 24, 3:00 PM)
Low26 °F (Jan 30, 6:00 AM)49% (Jan 30, 3:00 PM)29.71 "Hg (Feb 7, 9:00 AM)
Average40 °F91%30.34 "Hg
* Reported Jan 23 10:00 PM — Feb 7 10:00 PM, Biel, Weather by CustomWeather, © 2016

Note: Actual official high and low records may vary slightly from our data, if they occured in-between our weather recording intervals... More about our weather records

Advertising

Biel Weather History for the Previous 24 Hours

 ConditionsComfort  
Time TempWeatherWind HumidityBarometerVisibility
10:00 PM
Sun, Feb 7
38 °FChilly.5 mph94%30.03 "HgN/A
9:00 PM38 °FChilly.5 mph93%30.01 "HgN/A
8:00 PM38 °FChilly.3 mph95%30.00 "HgN/A
7:00 PM40 °FQuite cool.6 mph92%29.97 "HgN/A
6:00 PM40 °FChilly.3 mph97%29.95 "HgN/A
5:00 PM40 °FQuite cool.5 mph95%29.93 "HgN/A
4:00 PM40 °FQuite cool.9 mph95%29.92 "HgN/A
3:00 PM41 °FQuite cool.8 mph96%29.88 "HgN/A
2:00 PM43 °FQuite cool.12 mph85%29.84 "HgN/A
1:00 PM42 °FQuite cool.14 mph100%29.81 "HgN/A
12:00 PM36 °FChilly.1 mph99%29.80 "HgN/A
11:00 AM35 °FChilly.1 mph99%29.75 "HgN/A
10:00 AM34 °FChilly.No wind100%29.72 "HgN/A
9:00 AM33 °FChilly.3 mph99%29.71 "HgN/A
8:00 AM33 °FChilly.5 mph100%29.72 "HgN/A
7:00 AM32 °FChilly.3 mph99%29.74 "HgN/A
6:00 AM32 °FChilly.1 mph100%29.76 "HgN/A
5:00 AM32 °FChilly.5 mph99%29.78 "HgN/A
Weather by CustomWeather, © 2016

See weather overviewHow to use our weather pages